Vorticity
5 11 10 14 19 12 40 1 -1 9 5 -27 18 9 12 20 -6 -1 19 11 33 9 9 5 6 8 13 4 -24 -19 30 -9 24 16 8 -2 7 7 -9 17 4 13 13 -4 0 20 26 10 4
12 15 19 18 32 -7 19 13 10 -15 -15 23 19 -2 5 5 15 8 -16 -8 -2 -7 -2 5 2 3 3 -1 -2 4 4 -1 18 -2 10 11 -1 13 4 14 -12 -1 -36 18 2 20 44 5 14
21 18 15 9 -21 5 17 -0 3 -0 22 15 13 7 11 26 13 8 4 2 6 17 7 -3 -1 0 3 5 -0 2 2 9 11 16 11 -11 13 7 -6 0 3 6 20 3 -8 10 37 6 18
13 12 18 12 10 15 2 -6 -4 -9 16 6 1 5 8 0 -0 7 7 5 1 -0 -0 -3 -3 -6 0 5 6 4 19 8 8 14 8 2 7 9 4 9 9 5 4 7 8 31 28 2 2
12 8 6 3 10 -6 14 12 -8 25 -4 14 21 -6 43 12 11 8 10 9 10 10 8 11 11 8 9 10 15 13 4 -1 1 -4 -0 0 7 7 14 4 3 1 1 5 9 -3 4 28 14
8 7 8 15 1 23 15 17 12 5 6 14 4 49 -2 4 9 6 6 6 7 4 7 6 4 5 13 12 10 17 22 19 17 16 12 9 9 6 8 10 6 12 11 8 5 12 18 6 2
15 -4 8 3 8 7 10 8 7 6 4 15 7 0 4 -6 8 11 10 10 5 5 6 6 11 15 14 10 7 9 6 6 7 8 10 12 9 7 9 7 10 3 3 4 5 10 10 10 5
10 8 25 7 4 -1 6 10 9 5 12 11 19 -5 11 -6 5 12 11 16 21 22 20 12 11 9 8 9 10 8 7 8 7 9 11 12 11 10 8 8 7 10 4 8 8 -0 4 9 12
11 -1 2 10 4 -0 13 5 16 8 3 7 6 6 4 5 7 9 9 9 8 6 6 6 6 6 4 3 8 7 5 5 4 3 1 -0 1 3 3 3 3 4 7 3 1 6 3 7 11
-13 14 -2 7 9 2 7 14 11 9 7 6 21 8 7 7 7 6 6 4 11 4 7 12 10 9 14 19 22 11 5 8 13 17 20 21 17 16 16 16 17 18 17 20 19 14 17 11 12
10 24 18 17 19 20 19 22 29 27 25 40 23 39 28 31 28 27 28 24 24 20 16 12 16 17 13 13 21 25 20 14 9 6 6 6 5 6 6 8 5 7 8 10 16 21 23 18 2
3 2 3 -4 -6 3 1 -14 11 -4 2 0 6 3 -2 6 5 8 4 9 9 12 17 15 13 10 9 4 3 -1 -1 -1 -3 0 1 1 3 -5 -2 2 3 1 2 8 3 5 4 10 22
7 -2 4 5 4 1 5 6 2 5 0 0 -1 2 -0 0 1 3 2 1 0 -0 1 1 0 2 5 3 3 -0 0 3 1 2 3 4 3 3 4 3 2 2 3 3 3 4 5 4 2
7 2 8 6 5 6 3 4 7 5 4 5 7 6 4 6 7 7 6 5 4 5 5 6 5 4 4 4 3 4 4 4 4 3 2 2 3 6 5 5 4 4 5 4 1 2 2 4 3
5 12 8 5 4 5 7 8 4 7 8 8 4 3 3 3 5 5 6 4 4 6 5 5 5 5 5 5 5 7 6 6 6 6 5 5 4 4 4 4 4 3 4 5 5 4 3 2 3
11 -5 11 -9 2 8 4 6 3 -2 4 7 9 9 7 7 6 8 5 5 6 7 6 6 6 7 5 4 5 4 4 3 4 5 5 5 5 6 5 5 5 6 6 7 6 6 7 6 5
-9 9 11 6 6 5 6 8 9 11 10 8 7 9 9 10 9 6 5 8 7 7 6 7 8 6 6 6 6 5 7 6 8 10 10 10 11 9 8 7 6 6 7 7 6 5 5 6 7
11 10 9 9 10 4 7 6 6 3 4 14 10 5 9 9 5 16 10 6 9 7 6 6 7 6 6 6 4 2 2 3 2 4 4 -2 0 1 0 0 7 10 10 9 6 4 5 7 9
7 6 8 8 8 9 5 5 8 -3 5 8 3 7 7 7 2 6 5 4 3 1 2 1 -0 1 2 1 0 1 0 2 1 2 3 1 6 5 4 6 7 1 3 8 9 13 11 6 6
7 7 7 5 5 12 7 4 12 0 10 16 4 3 3 3 5 4 4 7 6 6 5 5 5 4 4 5 5 5 6 4 3 2 6 7 6 0 6 12 9 10 11 10 11 8 9 12 13
6 4 1 1 8 10 4 5 -1 5 6 4 3 3 5 5 6 5 5 4 5 5 4 4 8 11 10 8 5 8 3 4 5 5 7 5 3 3 10 12 12 11 13 15 13 13 11 10 8
8 6 4 -1 4 7 4 10 -7 2 2 5 5 2 -0 3 2 -1 -4 -9 -3 5 5 4 3 13 10 7 11 11 7 8 5 5 4 4 4 5 8 8 15 16 15 15 15 16 16 13 10
11 7 10 14 1 13 6 9 8 -0 10 -2 3 1 -2 1 6 5 6 4 7 3 6 8 6 13 7 8 8 12 9 9 6 6 8 11 19 19 17 19 17 15 13 13 12 11 13 14 12
6 6 2 6 6 5 13 -4 26 9 -13 3 -2 -0 1 6 9 10 1 3 -2 1 6 4 12 9 9 7 6 8 8 1 3 2 10 9 11 16 13 15 12 15 12 14 13 13 12 13 15
5 3 6 5 7 9 -6 -2 5 21 9 2 -6 11 10 0 13 11 5 8 2 3 8 13 7 5 6 6 13 10 6 6 6 15 10 15 18 17 13 12 17 5 -4 10 15 15 14 17 17
6 7 9 7 6 6 6 -2 16 10 1 -5 6 7 -2 6 6 7 8 7 5 9 9 8 7 7 11 10 6 11 11 6 10 6 13 24 17 13 13 11 10 10 1 8 12 10 10 17 19
4 4 1 3 3 4 1 7 8 14 5 -1 7 4 1 5 4 6 3 6 9 10 5 6 9 11 9 9 12 11 7 7 8 15 20 15 12 15 14 12 12 9 -2 8 12 16 17 15 14
4 4 1 4 5 5 5 6 6 7 12 9 7 -3 3 2 2 4 6 9 8 5 5 9 9 11 12 13 8 7 5 10 17 17 15 12 17 18 12 4 3 5 2 16 16 13 9 9 11
5 7 7 7 9 5 4 9 13 8 2 5 4 5 5 2 6 6 10 6 5 8 10 10 13 13 10 3 7 7 10 6 23 15 15 18 17 20 12 9 8 12 20 12 10 9 8 1 -1
4 7 5 3 4 3 7 1 3 6 5 6 6 3 6 11 3 12 7 6 14 11 10 10 9 5 4 6 4 8 2 16 26 19 16 16 17 20 13 9 17 12 11 9 8 2 -0 3 6
Height
5817 5817 5817 5819 5824 5824 5824 5831 5826 5821 5819 5828 5824 5822 5825 5826 5826 5827 5825 5824 5824 5826 5827 5828 5827 5827 5825 5825 5828 5828 5827 5827 5828 5826 5825 5825 5823 5821 5823 5822 5822 5818 5817 5822 5822 5820 5816 5818 5824
5812 5814 5815 5817 5818 5821 5828 5824 5822 5816 5820 5823 5822 5820 5817 5816 5821 5823 5823 5822 5822 5825 5825 5825 5824 5823 5821 5822 5824 5824 5822 5822 5823 5823 5821 5821 5820 5819 5817 5818 5815 5818 5819 5822 5820 5813 5795 5809 5814
5809 5810 5813 5814 5816 5821 5819 5817 5814 5814 5821 5818 5818 5815 5815 5815 5817 5819 5820 5820 5820 5820 5820 5822 5820 5820 5819 5819 5819 5817 5818 5817 5818 5817 5817 5817 5816 5815 5812 5812 5810 5812 5817 5816 5810 5809 5799 5803 5805
5806 5808 5812 5812 5822 5815 5814 5812 5815 5814 5816 5816 5816 5816 5811 5812 5814 5817 5817 5817 5817 5816 5816 5818 5817 5816 5815 5813 5813 5812 5812 5811 5813 5812 5813 5812 5809 5810 5809 5807 5806 5807 5808 5804 5801 5801 5805 5800 5801
5805 5808 5809 5816 5812 5811 5812 5814 5815 5815 5813 5814 5813 5810 5800 5808 5810 5811 5812 5811 5811 5811 5812 5812 5811 5809 5809 5808 5807 5806 5807 5808 5808 5806 5805 5805 5802 5803 5805 5802 5802 5801 5802 5796 5795 5798 5795 5792 5802
5803 5806 5813 5815 5812 5810 5812 5813 5814 5813 5813 5811 5802 5800 5804 5806 5807 5807 5808 5808 5807 5807 5807 5806 5805 5804 5805 5803 5802 5800 5800 5800 5801 5801 5799 5798 5797 5795 5797 5798 5797 5797 5796 5793 5788 5789 5789 5791 5800
5801 5808 5816 5812 5811 5808 5809 5810 5810 5807 5809 5810 5802 5798 5798 5806 5806 5804 5804 5804 5803 5802 5802 5801 5801 5800 5799 5797 5796 5795 5795 5794 5794 5794 5793 5791 5790 5789 5789 5790 5790 5791 5792 5790 5784 5787 5789 5788 5791
5802 5811 5813 5814 5814 5807 5807 5808 5808 5806 5806 5807 5805 5799 5801 5800 5800 5800 5800 5800 5799 5799 5797 5795 5793 5794 5794 5792 5790 5790 5789 5789 5789 5788 5786 5785 5783 5781 5781 5780 5778 5780 5780 5780 5781 5778 5779 5781 5784
5808 5812 5812 5807 5814 5808 5806 5807 5806 5805 5802 5804 5804 5800 5798 5798 5798 5797 5796 5795 5794 5793 5792 5791 5789 5788 5787 5785 5787 5786 5785 5784 5783 5782 5781 5779 5777 5773 5773 5774 5771 5770 5771 5769 5768 5770 5770 5771 5771
5808 5810 5807 5808 5808 5807 5805 5805 5803 5802 5800 5798 5799 5798 5796 5795 5793 5793 5792 5790 5791 5789 5787 5786 5785 5784 5782 5780 5778 5780 5778 5778 5777 5776 5775 5774 5773 5770 5767 5765 5765 5765 5761 5761 5760 5760 5760 5759 5760
5808 5806 5807 5807 5807 5806 5805 5803 5802 5801 5800 5798 5795 5794 5795 5794 5792 5790 5788 5786 5785 5784 5783 5782 5781 5780 5778 5776 5775 5774 5774 5773 5773 5772 5771 5770 5769 5767 5765 5764 5763 5762 5759 5756 5756 5754 5752 5751 5750
5809 5809 5809 5809 5809 5808 5807 5805 5804 5803 5801 5800 5798 5796 5795 5793 5792 5789 5788 5787 5785 5784 5784 5783 5782 5780 5779 5777 5775 5775 5774 5773 5772 5771 5770 5768 5766 5764 5763 5760 5758 5758 5756 5755 5751 5749 5747 5743 5739
5812 5811 5811 5810 5810 5809 5808 5808 5806 5804 5802 5800 5799 5798 5796 5794 5792 5790 5789 5786 5786 5784 5784 5783 5781 5780 5777 5775 5773 5771 5770 5769 5768 5766 5764 5762 5760 5757 5755 5753 5751 5750 5749 5748 5746 5744 5742 5738 5734
5814 5814 5813 5812 5811 5811 5810 5808 5806 5804 5802 5800 5799 5798 5795 5793 5791 5789 5788 5786 5784 5782 5781 5780 5778 5776 5774 5772 5770 5768 5766 5763 5761 5759 5757 5754 5752 5750 5748 5745 5744 5742 5740 5738 5737 5735 5733 5731 5730
5817 5817 5814 5813 5812 5811 5810 5808 5807 5805 5802 5801 5799 5797 5794 5792 5790 5788 5786 5784 5782 5780 5778 5776 5774 5771 5768 5766 5763 5761 5759 5756 5753 5751 5748 5746 5744 5741 5738 5736 5733 5731 5731 5729 5727 5725 5723 5720 5718
5815 5815 5816 5813 5812 5811 5810 5808 5805 5802 5801 5799 5797 5795 5793 5790 5788 5785 5784 5781 5779 5777 5775 5773 5770 5768 5764 5761 5758 5754 5752 5747 5745 5743 5740 5737 5734 5733 5730 5728 5725 5721 5719 5717 5714 5712 5711 5711 5710
5816 5817 5815 5814 5811 5809 5809 5807 5805 5803 5799 5796 5794 5791 5789 5786 5785 5783 5781 5778 5775 5773 5770 5768 5764 5760 5758 5754 5750 5747 5744 5740 5738 5735 5733 5729 5725 5721 5717 5715 5712 5709 5706 5704 5701 5700 5699 5697 5697
5817 5815 5813 5812 5811 5808 5807 5805 5804 5801 5798 5794 5792 5789 5787 5785 5781 5779 5778 5775 5772 5770 5767 5764 5761 5758 5754 5749 5745 5740 5737 5732 5729 5725 5721 5720 5713 5708 5703 5700 5699 5696 5693 5691 5688 5685 5683 5683 5682
5818 5815 5814 5812 5810 5808 5806 5804 5801 5799 5796 5794 5791 5789 5786 5783 5780 5777 5774 5772 5769 5766 5763 5759 5754 5751 5747 5741 5737 5732 5728 5723 5718 5714 5707 5705 5700 5698 5692 5685 5681 5678 5677 5675 5672 5671 5669 5666 5664
5816 5815 5813 5810 5808 5807 5803 5802 5799 5796 5795 5792 5789 5787 5784 5780 5777 5773 5770 5768 5764 5760 5756 5752 5747 5742 5738 5734 5726 5722 5716 5712 5706 5702 5696 5692 5688 5683 5678 5672 5667 5661 5656 5653 5650 5649 5649 5647 5646
5812 5812 5810 5808 5806 5803 5801 5797 5794 5793 5792 5790 5787 5784 5780 5777 5773 5770 5767 5763 5759 5755 5750 5745 5740 5734 5728 5724 5717 5711 5706 5699 5693 5687 5681 5676 5670 5666 5660 5654 5648 5642 5638 5635 5631 5628 5625 5626 5626
5812 5810 5808 5806 5804 5802 5800 5799 5793 5787 5787 5786 5782 5779 5776 5772 5769 5765 5761 5757 5752 5749 5744 5738 5731 5725 5717 5710 5706 5700 5693 5688 5681 5673 5666 5659 5653 5648 5641 5635 5628 5622 5617 5613 5608 5606 5604 5602 5603
5810 5807 5805 5804 5802 5800 5797 5797 5793 5790 5785 5779 5776 5774 5772 5767 5764 5760 5754 5749 5745 5739 5733 5727 5720 5713 5705 5697 5692 5686 5680 5673 5664 5657 5648 5639 5631 5625 5619 5614 5608 5602 5596 5592 5588 5587 5586 5584 5582
5806 5805 5802 5800 5798 5798 5794 5793 5794 5786 5781 5775 5771 5767 5763 5759 5756 5752 5747 5743 5737 5728 5723 5715 5707 5701 5694 5686 5678 5672 5667 5659 5651 5643 5633 5623 5616 5608 5600 5595 5590 5585 5580 5575 5571 5567 5566 5565 5564
5803 5800 5799 5798 5793 5792 5784 5785 5785 5783 5775 5773 5768 5759 5753 5750 5746 5742 5736 5730 5723 5717 5710 5701 5694 5689 5682 5675 5667 5657 5651 5644 5634 5625 5616 5606 5600 5593 5584 5578 5572 5567 5562 5558 5553 5550 5547 5545 5544
5799 5795 5793 5789 5788 5787 5788 5783 5783 5774 5768 5762 5754 5748 5739 5734 5726 5723 5718 5713 5708 5702 5696 5688 5678 5671 5664 5656 5649 5642 5634 5626 5618 5609 5597 5590 5581 5573 5567 5562 5557 5552 5546 5540 5536 5532 5530 5526 5525
5794 5791 5787 5782 5780 5775 5776 5774 5775 5770 5765 5754 5748 5739 5727 5724 5718 5714 5707 5700 5694 5688 5680 5670 5668 5658 5651 5641 5633 5624 5616 5607 5599 5589 5580 5572 5564 5555 5549 5545 5541 5535 5529 5524 5518 5514 5512 5509 5508
5790 5786 5782 5775 5771 5764 5766 5764 5767 5762 5757 5751 5743 5735 5727 5718 5711 5704 5696 5688 5681 5675 5667 5659 5652 5645 5636 5627 5618 5609 5599 5588 5579 5569 5561 5553 5546 5538 5532 5527 5521 5516 5511 5505 5500 5495 5492 5490 5490
5782 5780 5776 5770 5766 5757 5752 5755 5757 5752 5747 5740 5732 5724 5716 5706 5698 5691 5684 5675 5669 5663 5656 5647 5638 5630 5622 5613 5602 5592 5582 5571 5561 5550 5542 5534 5527 5521 5514 5509 5504 5498 5492 5486 5481 5477 5473 5469 5467
5778 5776 5772 5761 5757 5753 5748 5744 5750 5740 5732 5725 5719 5712 5706 5698 5690 5683 5674 5664 5659 5650 5641 5631 5621 5614 5605 5595 5585 5576 5565 5553 5544 5534 5524 5517 5510 5504 5498 5492 5486 5481 5475 5468 5463 5458 5453 5449 5445